Terug naar catalogus

H-1 R/B

ActiefPO
NORAD 20491·ROCKET BODY·🇯🇵 Japan

Gelanceerd Feb 7, 1990 vanaf Tanegashima Space Center

Loading…

Volgende Passages (komende 24 uur)

TLE

VersSource: Space-Track

Epoch: Sep 14, 2026, 06:13 UTC

1 20491U 90013D   26257.25920420  .00000519  00000-0  10414-2 0  9992
2 20491  99.0653 183.6307 0467031 308.8633  47.1670 13.03742806740639

Volg H-1 R/B in realtime met AllMySat

Download on the App Store